Oak Ridge, TN

9:42 PM EDT on October 13, 2019 (GMT -0400)
Oak Ridge

Weather History for KOQT - August, 2019

Change the Weather History Date:

Sunday, August 25, 2019

  Actual Average (KTYS) Record (KTYS)
Temperature  
Mean Temperature 74 °F -  
Max Temperature 78 °F 87 °F 99 °F (1943)
Min Temperature 69 °F 66 °F 53 °F (1891)
Cooling Degree Days 8    
Growing Degree Days 24 (Base 50)    
Moisture  
Dew Point 65 °F    
Average Humidity 73    
Maximum Humidity 82    
Minimum Humidity 65    
Precipitation  
Precipitation 0.00 in - - ()
Sea Level Pressure  
Sea Level Pressure 30.05 in    
Wind  
Wind Speed 2 mph ()    
Max Wind Speed 5 mph    
Max Gust Speed -    
Visibility 10.0 miles    
Events      
Averages and records for this station are not official NWS values.
T = Trace of Precipitation, MM = Missing Value Source: Averaged Metar Reports

Daily Weather History Graph

Daily Weather History Graph

Search for Another Location

Airport or City:

Astronomy

Aug. 25, 2019 Rise Set
Actual Time 7:03 AM EDT 8:14 PM EDT
Civil Twilight 6:36 AM EDT 8:40 PM EDT
Nautical Twilight 6:04 AM EDT 9:12 PM EDT
Astronomical Twilight 5:31 AM EDT 9:45 PM EDT
Moon 1:42 AM EDT (8/25) 4:27 PM EDT (8/25)
Length of Visible Light 14h 04m
Length of Day
13h 11m
Waning Crescent, 29% of the Moon is Illuminated
Aug 25
Waning Crescent
Aug 30
New
Sep 5
First Quarter
Sep 14
Full
Sep 21
Last Quarter

Hourly Weather History & Observations

Time (EDT) Temp. Dew Point Humidity Pressure Visibility Wind Dir Wind Speed Gust Speed Precip Events Conditions
12:53 AM 73.0 °F 66.0 °F 79% 30.05 in 10.0 mi Variable 3.5 mph - N/A   Clear
1:53 AM 72.0 °F 64.9 °F 78% 30.05 in 10.0 mi Calm Calm - N/A   Scattered Clouds
2:53 AM 71.1 °F 64.0 °F 78% 30.04 in 10.0 mi Variable 4.6 mph - N/A   Mostly Cloudy
3:53 AM 71.1 °F 63.0 °F 75% 30.03 in 10.0 mi Variable 4.6 mph - N/A   Mostly Cloudy
4:17 AM 70.0 °F 63.0 °F 78% 30.07 in 10.0 mi Calm Calm - N/A   Overcast
4:53 AM 70.0 °F 63.0 °F 78% 30.03 in 10.0 mi Variable 3.5 mph - N/A   Overcast
5:53 AM 70.0 °F 63.0 °F 78% 30.03 in 10.0 mi Calm Calm - N/A   Overcast
7:53 AM 69.1 °F 62.1 °F 78% 30.06 in 10.0 mi ENE 3.5 mph - N/A   Overcast
8:31 AM 70.0 °F 62.1 °F 76% 30.11 in 10.0 mi Variable 4.6 mph - N/A   Overcast
8:53 AM 70.0 °F 62.1 °F 76% 30.07 in 10.0 mi Calm Calm - N/A   Overcast
9:53 AM 71.1 °F 62.1 °F 73% 30.08 in 10.0 mi Variable 3.5 mph - N/A   Overcast
10:53 AM 73.0 °F 63.0 °F 71% 30.08 in 10.0 mi Variable 4.6 mph - N/A   Overcast
11:53 AM 73.0 °F 62.1 °F 68% 30.08 in 10.0 mi Calm Calm - N/A   Overcast
12:03 PM 73.9 °F 63.0 °F 68% 30.11 in 10.0 mi Calm Calm - N/A   Overcast
12:25 PM 75.0 °F 63.0 °F 66% 30.11 in 10.0 mi Calm Calm - N/A   Overcast
12:53 PM 75.9 °F 64.0 °F 67% 30.06 in 10.0 mi Variable 3.5 mph - N/A   Overcast
1:26 PM 77.0 °F 64.4 °F 65% 30.09 in 10.0 mi Calm Calm - N/A   Overcast
1:53 PM 77.0 °F 64.9 °F 66% 30.05 in 10.0 mi Calm Calm - N/A   Overcast
2:53 PM 77.0 °F 66.0 °F 69% 30.04 in 10.0 mi East 3.5 mph - N/A   Overcast
3:53 PM 77.0 °F 66.0 °F 69% 30.01 in 10.0 mi Calm Calm - N/A   Overcast
5:53 PM 78.1 °F 66.9 °F 68% 30.00 in 10.0 mi Calm Calm - N/A   Overcast
7:12 PM 78.8 °F 66.2 °F 65% 30.03 in 10.0 mi Calm Calm - N/A   Overcast
7:31 PM 77.0 °F 66.9 °F 71% 30.03 in 10.0 mi Calm Calm - N/A   Overcast
7:53 PM 77.0 °F 68.0 °F 74% 29.99 in 10.0 mi East 3.5 mph - N/A   Overcast
8:53 PM 75.9 °F 68.0 °F 76% 30.01 in 10.0 mi Calm Calm - N/A   Overcast
9:53 PM 73.9 °F 68.0 °F 82% 30.03 in 10.0 mi Calm Calm - N/A   Overcast
10:53 PM 73.9 °F 66.9 °F 79% 30.03 in 10.0 mi Calm Calm - N/A   Overcast